Location: Sternwarte_Laufen
(47.9344°N, 12.9346°E)
Time: 00:41:16
(UTC+02:00)

ISS - Pass Details

Date: 24 May 2017
Orbit: 402 x 408 km, 51.6° (Epoch: 27 May)

Event Time Altitude Azimuth Distance (km) Brightness Sun altitude
Rises 01:56:34 0° 284° (WNW) 2,332 0.1 -20.3°
Reaches altitude 10° 01:58:44 10° 292° (WNW) 1,470 -0.9 -20.3°
Maximum altitude 02:01:53 42° 5° (N) 589 -2.6 -20.1°
Drops below altitude 10° 02:05:03 10° 79° (ENE) 1,465 -0.7 -20.0°
Sets 02:07:11 0° 86° (E) 2,323 0.3 -19.9°
